FALCON 9 DEB (49778 NORAD) Tracking and Keplerian Element Data

This shows tracking and keplerian element data for the satellite.

Feedback or suggestion? Click here.




ElementValue
Catalog49778
NameFALCON 9 DEB
Epoch Orbit2625
Epoch Day140.5280622
Epoch Year2022
RAAN234.4182
Inclination53.2037
Eccentricity0.0012685
Argument of Perigee79.8472
Mean Anonmoly280.3969
Mean Motion15.5130839
Decay Rate0.00039132
L11 49778U 21115BG 22140.52806220 .00039132 00000+0 65793-3 0 9999
L22 49778 53.2037 234.4182 0012685 79.8472 280.3969 15.51308390 26257

Live tracking and technical data element details for FALCON 9 DEB (NORAD 49778). FALCON 9 DEB can be tracked NOW for your location showing map with azimuth and elevation plus other details from your city location.

Track the satellite on the map from your city or location and see movement details for azimuth, elevation, latitude, longitude, range, height, and movement on the map or in text.







IsCatalogInMostPopularTable: catalog: 49778, numindb: 22
Update: records affected: 1



GetName: 49778 FALCON 9 DEB

Hit Count: updated at: Mon, 23 May 2022 19:54:28 GMT